Location: Bodest
(46.3000°N, 22.5667°E)
Time: 00:36:09
(UTC+00:00)

Cosmos 1626 Rocket - Visible Passes

Search period start: 22 May 2022 00:00
Search period end: 01 June 2022 00:00
Orbit: 602 x 631 km, 82.5° (Epoch: 21 May)

Date Brightness Start Highest point End Pass type
(mag) Time Alt. Az. Time Alt. Az. Time Alt. Az.
23 May 6.7 01:27:50 10° E 01:29:04 11° E 01:30:18 10° ENE visible
24 May 6.2 01:42:14 10° SE 01:45:21 19° E 01:48:28 10° NE visible
25 May 5.3 01:57:47 10° SSE 02:01:43 33° E 02:05:39 10° NNE visible
27 May 6.6 00:56:34 10° E 00:57:34 11° E 00:58:35 10° ENE visible
28 May 6.1 01:10:47 10° SE 01:13:50 19° E 01:16:54 10° NE visible
29 May 5.2 01:26:19 10° SSE 01:30:12 32° E 01:34:05 10° NNE visible
30 May 4.2 01:42:21 10° S 01:46:38 57° E 01:50:56 10° NNE visible
31 May 6.5 00:25:20 10° E 00:26:03 10° E 00:26:46 10° ENE visible
31 May 3.5 01:58:47 10° SSW 02:03:10 80° W 02:07:32 10° N visible
